King Khaled, Saudi Arabia

2:06 AM +03 on July 27, 2017 (GMT +0300)
King Khaled International

Weather History for OERK - November, 2012

Change the Weather History Date:

Friday, November 23, 2012

  Actual Average Record
Temperature  
Mean Temperature 68 °F -  
Max Temperature 79 °F 72 °F 86 °F (1998)
Min Temperature 58 °F 50 °F 46 °F (2011)
Cooling Degree Days 4    
Growing Degree Days 18 (Base 50)    
Moisture  
Dew Point 43 °F    
Average Humidity 38    
Maximum Humidity 55    
Minimum Humidity 18    
Precipitation  
Precipitation 0.00 in - - ()
Sea Level Pressure  
Sea Level Pressure 29.99 in    
Wind  
Wind Speed 7 mph ()    
Max Wind Speed 12 mph    
Max Gust Speed -    
Visibility 6.1 miles    
Events      
Averages and records for this station are not official NWS values.
T = Trace of Precipitation, MM = Missing Value Source: Averaged Metar Reports

Daily Weather History Graph

Daily Weather History Graph

Search for Another Location

Airport or City:

Trip Planner

Search our weather history database for the weather conditions in past years. The results will help you decide how hot, cold, wet, or windy it might be!

Date:

Astronomy

Nov. 23, 2012 Rise Set
Actual Time 6:15 AM +03 5:03 PM +03
Civil Twilight 5:50 AM +03 5:28 PM +03
Nautical Twilight 5:23 AM +03 5:55 PM +03
Astronomical Twilight 4:55 AM +03 6:23 PM +03
Moon 1:43 PM +03 (11/23) 1:38 AM +03 (11/23)
Length of Visible Light 11h 37m
Length of Day
10h 48m
Waxing Gibbous, 77% of the Moon is Illuminated
Nov 23
Waxing Gibbous
Nov 28
Full
Dec 6
Last Quarter
Dec 13
New
Dec 20
First Quarter

Hourly Weather History & Observations

Time (+03) Temp. Dew Point Humidity Pressure Visibility Wind Dir Wind Speed Gust Speed Precip Events Conditions
12:00 AM 61 °F 43 °F 40% 29.98 in 6 mi SE 5.8 mph - -  
12:00 AM 60.8 °F 42.8 °F 52% 30.04 in - SE 5.8 mph - N/A   Clear
1:00 AM 60.8 °F 42.8 °F 52% 30.04 in - SE 4.6 mph - N/A   Clear
2:00 AM 60.8 °F 42.8 °F 52% 30.04 in - SE 5.8 mph - N/A   Clear
3:00 AM 60 °F 43 °F 42% 29.96 in 6 mi SSE 4.6 mph - -  
3:00 AM 60.8 °F 42.8 °F 52% 30.01 in - SSE 4.6 mph - N/A   Clear
4:00 AM 59.0 °F 42.8 °F 55% 30.01 in - SE 4.6 mph - N/A   Clear
5:00 AM 59.0 °F 42.8 °F 55% 30.04 in - SE 5.8 mph - N/A   Clear
6:00 AM 59 °F 43 °F 44% 29.99 in 6 mi SE 5.8 mph - -  
6:00 AM 59.0 °F 42.8 °F 55% 30.04 in - SE 5.8 mph - N/A   Clear
7:00 AM 59.0 °F 42.8 °F 55% 30.06 in - SE 3.5 mph - N/A   Clear
8:00 AM 64.4 °F 44.6 °F 49% 30.06 in - South 10.4 mph - N/A   Clear
9:00 AM 67 °F 45 °F 33% 30.03 in 6 mi South 11.5 mph - -   Partly Cloudy
9:00 AM 66.2 °F 44.6 °F 46% 30.09 in - South 11.5 mph - N/A   Clear
10:00 AM 68.0 °F 44.6 °F 43% 30.06 in - SSE 11.5 mph - N/A   Clear
11:00 AM 69.8 °F 44.6 °F 40% 30.04 in - South 11.5 mph - N/A   Clear
12:00 PM 74 °F 45 °F 24% 29.96 in 6 mi South 11.5 mph - -   Partly Cloudy
12:00 PM 75.2 °F 44.6 °F 34% 30.01 in - South 11.5 mph - N/A   Clear
1:00 PM 75.2 °F 44.6 °F 34% 29.98 in - SSE 10.4 mph - N/A   Clear
2:00 PM 78.8 °F 44.6 °F 30% 29.95 in - South 10.4 mph - N/A   Clear
3:00 PM 78 °F 45 °F 20% 29.88 in 6 mi South 9.2 mph - -   Partly Cloudy
3:00 PM 78.8 °F 44.6 °F 30% 29.95 in - South 9.2 mph - N/A   Clear
4:00 PM 78.8 °F 42.8 °F 28% 29.95 in - SSE 10.4 mph - N/A   Clear
5:00 PM 77.0 °F 41.0 °F 28% 29.95 in 6.2 mi SSE 8.1 mph - N/A   Mostly Cloudy
6:00 PM 76 °F 41 °F 18% 29.90 in 6 mi SSE 8.1 mph - -   Scattered Clouds
6:00 PM 75.2 °F 41.0 °F 29% 29.95 in 6.2 mi SSE 8.1 mph - N/A   Scattered Clouds
7:00 PM 75.2 °F 41.0 °F 29% 29.98 in - SSE 6.9 mph - N/A   Clear
8:00 PM 73.4 °F 39.2 °F 29% 29.98 in - South 10.4 mph - N/A   Clear
9:00 PM 73 °F 39 °F 19% 29.91 in 6 mi SSE 11.5 mph - -   Partly Cloudy
9:00 PM 73.4 °F 39.2 °F 29% 29.98 in - SSE 11.5 mph - N/A   Clear
10:00 PM 73.4 °F 39.2 °F 29% 29.98 in 6.2 mi SSE 9.2 mph - N/A   Mostly Cloudy
11:00 PM 71.6 °F 37.4 °F 29% 29.98 in 6.2 mi SSE 11.5 mph - N/A   Mostly Cloudy